Regional Weather Roundup
Issued by NWS Charleston, WV

Home | Current Version | Previous Version | Graphics & Text | Print | Product List | Glossary On
Versions: 1 2 3 4 5 6 7 8 9 10 11 12 13 14 15 16 17 18 19 20 21 22 23 24 25 26 27 28 29 30 31 32 33 34 35 36 37 38 39 40 41 42 43 44 45 46 47 48 49 50
000
ASUS41 KRLX 060910
RWRRLX
West Virginia Regional Weather Roundup
National Weather Service Charleston WV
500 AM EDT MON JUL 06 2015

Note: "fair" indicates few or no clouds below 12,000 feet with no
significant weather and/or obstructions to visibility.

WVZ003-061000-
Northern Panhandle of West Virginia

CITY           SKY/WX    TMP DP  RH WIND       PRES   REMARKS
WHEELING       CLOUDY    70  65  84 E6        30.05S
$$

WVZ009-061000-
Northwest West Virginia

CITY           SKY/WX    TMP DP  RH WIND       PRES   REMARKS
PARKERSBURG    MOCLDY    69  66  90 SE3       30.06S
$$

WVZ006-061000-
Western West Virginia

CITY           SKY/WX    TMP DP  RH WIND       PRES   REMARKS
HUNTINGTON     CLOUDY    67  67 100 SW3       30.03R FOG
$$

WVZ015-061000-
West Central West Virginia

CITY           SKY/WX    TMP DP  RH WIND       PRES   REMARKS
CHARLESTON     FOG       64  63  96 CALM      30.04S VSB 1/4
$$

WVZ022-031-061000-
North Central West Virginia

CITY           SKY/WX    TMP DP  RH WIND       PRES   REMARKS
CLARKSBURG     MOCLDY    68  67  96 E5        30.06F
MORGANTOWN     MOCLDY    70  65  84 CALM      30.08S
$$

WVZ025-035-042-045-061000-
Southern West Virginia

CITY           SKY/WX    TMP DP  RH WIND       PRES   REMARKS
BECKLEY        MOCLDY    64  62  93 SE6       30.11S
LOGAN          CLOUDY    66  66 100 CALM      30.04S FOG
BLUEFIELD      LGT RAIN  66  62  87 CALM      30.14R
LEWISBURG      CLOUDY    67  65  93 CALM      30.12R
$$

WVZ047-061000-
Northern Mountains of West Virginia

CITY           SKY/WX    TMP DP  RH WIND       PRES   REMARKS
ELKINS         CLOUDY    65  63  93 CALM      30.10F
$$

WVZ052-061000-
Eastern Panhandle of West Virginia

CITY           SKY/WX    TMP DP  RH WIND       PRES   REMARKS
MARTINSBURG    CLOUDY    72  70  93 E3        30.11S FOG
PETERSBURG     DRIZZLE   70  68  92 CALM      30.10S
$$



USA.gov is the U.S. government's official web portal to all federal, state and local government web resources and services.